Location: Rounton
(54.4000°N, 1.3500°W)
Time: 14:57:09
(UTC+00:00)

Transit 4A - Pass Details

Date: 03 December 2021
Orbit: 864 x 981 km, 66.8° (Epoch: 20 January)

Event Time Altitude Azimuth Distance (km) Brightness Sun altitude
Rises 02:57:49 0° 316° (NW) 3,581 - -43.1°
Reaches altitude 10° 03:00:22 10° 320° (NW) 2,653 - -42.7°
Maximum altitude 03:06:31 63° 41° (NE) 1,066 - -41.9°
Exits shadow 03:11:24 17° 119° (ESE) 2,219 10.1 -41.3°
Drops below altitude 10° 03:12:48 10° 123° (ESE) 2,711 10.6 -41.1°
Sets 03:15:25 0° 126° (SE) 3,665 11.4 -40.7°
